Regional Weather Roundup
Issued by NWS Sioux Falls, SD

Home | Current Version | Previous Version | Text Only | Print | Product List | Glossary On
Versions: 1 2 3 4 5 6 7 8 9 10 11 12 13 14 15 16 17 18 19 20 21 22 23 24 25 26 27 28 29 30 31 32 33 34 35 36 37 38 39 40 41 42 43 44 45 46 47 48 49 50
000
ASUS43 KFSD 051910
RWRFSD

WEATHER ROUNDUP FOR SE SOUTH DAKOTA/SW MINNESOTA/NW IOWA
NATIONAL WEATHER SERVICE SIOUX FALLS SD
200 PM CDT TUE MAY 05 2015

NOTE: "FAIR" INDICATES FEW OR NO CLOUDS BELOW 12,000 FEET WITH NO
SIGNIFICANT WEATHER AND OR OBSTRUCTIONS TO VISIBILITY.


SDZ038>040-050-052>070-052000-
SOUTHEAST SOUTH DAKOTA

CITY           SKY/WX    TMP DP  RH WIND       PRES   REMARKS
BROOKINGS      PTSUNNY   70  54  56 SE21      30.06F
CHAMBERLAIN    CLOUDY    64  48  56 SE16G22   30.01F
HURON          PTSUNNY   75  44  33 SE17G24   30.00F
MADISON        FAIR      68  54  60 SE16G22   30.05F
MITCHELL       CLOUDY    69  51  52 SE13      30.03F
SIOUX FALLS    CLOUDY    70  57  63 SE17G23   30.05F
WINNER         CLOUDY    61  50  67 SE15      30.01F
YANKTON        CLOUDY    63  55  77 SE8       30.04S
$$

MNZ071-072-080-081-089-090-097-098-052000-
SOUTHWEST MINNESOTA

CITY           SKY/WX    TMP DP  RH WIND       PRES   REMARKS
FAIRMONT       CLOUDY    57  50  77 E14       30.13F
JACKSON        CLOUDY    59  55  88 E15       30.13S FOG
LUVERNE        PTSUNNY   68  55  64 SE14      30.07F
MARSHALL       PTSUNNY   64  48  55 SE17      30.09F
MONTEVIDEO     PTSUNNY   73  48  40 S24G36    30.09S
REDWOOD FALLS  CLOUDY    65  53  65 SE17      30.12S
TRACY          CLOUDY    66  55  68 E15       30.10F
WINDOM         CLOUDY    61  54  77 E14       30.12F
WORTHINGTON    CLOUDY    59  54  82 SE17      30.10F
$$

IAZ001>003-012>014-020>022-031-032-NEZ013-014-SDZ071-052000-
NORTHWEST IOWA

CITY           SKY/WX    TMP DP  RH WIND       PRES   REMARKS
CHEROKEE       CLOUDY    66  61  84 S7        30.08F
DENISON        PTSUNNY   73  64  73 S16       30.05F
ESTHERVILLE    CLOUDY    56  55  97 SE15      30.12S FOG
LE MARS        CLOUDY    64  59  82 S7        30.07F HAZE
ORANGE CITY    CLOUDY    61  55  82 SE6       30.08F FOG
SHELDON        CLOUDY    61  61 100 SE15      30.08S
SIOUX CITY     PTSUNNY   70  61  73 SE8       30.05F
SPENCER        LGT RAIN  60  58  92 E13       30.10F FOG
STORM LAKE     CLOUDY    66  63  88 SE7       30.09F
$$

ABBREVIATIONS USED IN REMARKS
   TC - TEMPERATURE IN CELSIUS
  WCI - WIND CHILL INDEX
   HX - HEAT INDEX
  VSB - VISIBILITY



USA.gov is the U.S. government's official web portal to all federal, state and local government web resources and services.